Year,Month,Day,Hour,Minute,Value (Times are PST for temperature in C)
2010,06,24,00,00,18.20
2010,06,24,00,01,18.20
2010,06,24,00,02,18.20
2010,06,24,00,03,18.20
2010,06,24,00,04,18.20
2010,06,24,00,05,18.20
2010,06,24,00,06,18.10
2010,06,24,00,07,18.10
2010,06,24,00,08,18.10
2010,06,24,00,09,18.10
2010,06,24,00,10,18.00
2010,06,24,00,11,18.00
2010,06,24,00,12,18.00
2010,06,24,00,13,18.00
2010,06,24,00,14,18.00
2010,06,24,00,15,18.00
2010,06,24,00,16,18.00
2010,06,24,00,17,18.00
2010,06,24,00,18,18.00
2010,06,24,00,19,18.00
2010,06,24,00,20,18.00
2010,06,24,00,21,18.00
2010,06,24,00,22,18.00
2010,06,24,00,23,18.00
2010,06,24,00,24,18.00
2010,06,24,00,25,18.00
2010,06,24,00,26,17.90
2010,06,24,00,27,17.90
2010,06,24,00,28,17.90
2010,06,24,00,29,17.90
2010,06,24,00,30,17.90
2010,06,24,00,31,17.90
2010,06,24,00,32,17.80
2010,06,24,00,33,17.80
2010,06,24,00,34,17.80
2010,06,24,00,35,17.90
2010,06,24,00,36,17.90
2010,06,24,00,37,17.90
2010,06,24,00,38,17.80
2010,06,24,00,39,17.90
2010,06,24,00,40,17.80
2010,06,24,00,41,17.90
2010,06,24,00,42,17.90
2010,06,24,00,43,17.90
2010,06,24,00,44,17.90
2010,06,24,00,45,17.90
2010,06,24,00,46,17.90
2010,06,24,00,47,17.90
2010,06,24,00,48,17.90
2010,06,24,00,49,17.90
2010,06,24,00,50,17.90
2010,06,24,00,51,17.90
2010,06,24,00,52,17.90
2010,06,24,00,53,17.90
2010,06,24,00,54,18.00
2010,06,24,00,55,18.00
2010,06,24,00,56,18.00
2010,06,24,00,57,18.00
2010,06,24,00,58,18.00
2010,06,24,00,59,18.00
2010,06,24,01,00,17.90
2010,06,24,01,01,17.90
2010,06,24,01,02,17.90
2010,06,24,01,03,17.90
2010,06,24,01,04,17.80
2010,06,24,01,05,17.80
2010,06,24,01,06,17.80
2010,06,24,01,07,17.80
2010,06,24,01,08,17.70
2010,06,24,01,09,17.70
2010,06,24,01,10,17.70
2010,06,24,01,11,17.80
2010,06,24,01,12,17.90
2010,06,24,01,13,18.00
2010,06,24,01,14,18.00
2010,06,24,01,15,18.10
2010,06,24,01,16,18.20
2010,06,24,01,17,18.20
2010,06,24,01,18,18.20
2010,06,24,01,19,18.20
2010,06,24,01,20,18.30
2010,06,24,01,21,18.30
2010,06,24,01,22,18.30
2010,06,24,01,23,18.30
2010,06,24,01,24,18.30
2010,06,24,01,25,18.20
2010,06,24,01,26,18.20
2010,06,24,01,27,18.20
2010,06,24,01,28,18.20
2010,06,24,01,29,18.20
2010,06,24,01,30,18.20
2010,06,24,01,31,18.20
2010,06,24,01,32,18.20
2010,06,24,01,33,18.10
2010,06,24,01,34,18.10
2010,06,24,01,35,18.10
2010,06,24,01,36,18.10
2010,06,24,01,37,18.10
2010,06,24,01,38,18.10
2010,06,24,01,39,18.20
2010,06,24,01,40,18.20
2010,06,24,01,41,18.20
2010,06,24,01,42,18.20
2010,06,24,01,43,18.20
2010,06,24,01,44,18.20
2010,06,24,01,45,18.20
2010,06,24,01,46,18.20
2010,06,24,01,47,18.20
2010,06,24,01,48,18.20
2010,06,24,01,49,18.20
2010,06,24,01,50,18.20
2010,06,24,01,51,18.20
2010,06,24,01,52,18.20
2010,06,24,01,53,18.20
2010,06,24,01,54,18.20
2010,06,24,01,55,18.20
2010,06,24,01,56,18.20
2010,06,24,01,57,18.20
2010,06,24,01,58,18.20
2010,06,24,01,59,18.20
2010,06,24,02,00,18.20
2010,06,24,02,01,18.20
2010,06,24,02,02,18.20
2010,06,24,02,03,18.20
2010,06,24,02,04,18.10
2010,06,24,02,05,18.10
2010,06,24,02,06,18.10
2010,06,24,02,07,18.20
2010,06,24,02,08,18.20
2010,06,24,02,09,18.20
2010,06,24,02,10,18.20
2010,06,24,02,11,18.20
2010,06,24,02,12,18.20
2010,06,24,02,13,18.20
2010,06,24,02,14,18.20
2010,06,24,02,15,18.20
2010,06,24,02,16,18.20
2010,06,24,02,17,18.20
2010,06,24,02,18,18.20
2010,06,24,02,19,18.20
2010,06,24,02,20,18.20
2010,06,24,02,21,18.20
2010,06,24,02,22,18.20
2010,06,24,02,23,18.30
2010,06,24,02,24,18.20
2010,06,24,02,25,18.30
2010,06,24,02,26,18.30
2010,06,24,02,27,18.30
2010,06,24,02,28,18.30
2010,06,24,02,29,18.30
2010,06,24,02,30,18.30
2010,06,24,02,31,18.30
2010,06,24,02,32,18.30
2010,06,24,02,33,18.30
2010,06,24,02,34,18.30
2010,06,24,02,35,18.30
2010,06,24,02,36,18.30
2010,06,24,02,37,18.30
2010,06,24,02,38,18.30
2010,06,24,02,39,18.40
2010,06,24,02,40,18.40
2010,06,24,02,41,18.40
2010,06,24,02,42,18.40
2010,06,24,02,43,18.40
2010,06,24,02,44,18.40
2010,06,24,02,45,18.40
2010,06,24,02,46,18.40
2010,06,24,02,47,18.40
2010,06,24,02,48,18.40
2010,06,24,02,49,18.40
2010,06,24,02,50,18.40
2010,06,24,02,51,18.40
2010,06,24,02,52,18.30
2010,06,24,02,53,18.30
2010,06,24,02,54,18.30
2010,06,24,02,55,18.20
2010,06,24,02,56,18.20
2010,06,24,02,57,18.20
2010,06,24,02,58,18.10
2010,06,24,02,59,18.10
2010,06,24,03,00,18.00
2010,06,24,03,01,18.00
2010,06,24,03,02,17.90
2010,06,24,03,03,17.90
2010,06,24,03,04,17.80
2010,06,24,03,05,17.80
2010,06,24,03,06,17.80
2010,06,24,03,07,17.70
2010,06,24,03,08,17.70
2010,06,24,03,09,17.60
2010,06,24,03,10,17.60
2010,06,24,03,11,17.60
2010,06,24,03,12,17.60
2010,06,24,03,13,17.60
2010,06,24,03,14,17.50
2010,06,24,03,15,17.50
2010,06,24,03,16,17.40
2010,06,24,03,17,17.40
2010,06,24,03,18,17.30
2010,06,24,03,19,17.30
2010,06,24,03,20,17.20
2010,06,24,03,21,17.20
2010,06,24,03,22,17.20
2010,06,24,03,23,17.20
2010,06,24,03,24,17.20
2010,06,24,03,25,17.20
2010,06,24,03,26,17.20
2010,06,24,03,27,17.20
2010,06,24,03,28,17.10
2010,06,24,03,29,17.10
2010,06,24,03,30,17.10
2010,06,24,03,31,17.10
2010,06,24,03,32,17.10
2010,06,24,03,33,17.10
2010,06,24,03,34,17.10
2010,06,24,03,35,17.10
2010,06,24,03,36,17.10
2010,06,24,03,37,17.10
2010,06,24,03,38,17.00
2010,06,24,03,39,17.00
2010,06,24,03,40,17.00
2010,06,24,03,41,17.00
2010,06,24,03,42,17.00
2010,06,24,03,43,17.10
2010,06,24,03,44,17.10
2010,06,24,03,45,17.20
2010,06,24,03,46,17.30
2010,06,24,03,47,17.40
2010,06,24,03,48,17.50
2010,06,24,03,49,17.60
2010,06,24,03,50,17.60
2010,06,24,03,51,17.70
2010,06,24,03,52,17.70
2010,06,24,03,53,17.80
2010,06,24,03,54,17.80
2010,06,24,03,55,17.90
2010,06,24,03,56,17.90
2010,06,24,03,57,17.90
2010,06,24,03,58,17.90
2010,06,24,03,59,18.00
2010,06,24,04,00,18.00
2010,06,24,04,01,18.00
2010,06,24,04,02,18.10
2010,06,24,04,03,18.10
2010,06,24,04,04,18.10
2010,06,24,04,05,18.10
2010,06,24,04,06,18.10
2010,06,24,04,07,18.10
2010,06,24,04,08,18.10
2010,06,24,04,09,18.10
2010,06,24,04,10,18.10
2010,06,24,04,11,18.10
2010,06,24,04,12,18.00
2010,06,24,04,13,18.00
2010,06,24,04,14,18.00
2010,06,24,04,15,18.00
2010,06,24,04,16,18.00
2010,06,24,04,17,18.00
2010,06,24,04,18,17.90
2010,06,24,04,19,17.90
2010,06,24,04,20,17.90
2010,06,24,04,21,17.90
2010,06,24,04,22,17.80
2010,06,24,04,23,17.80
2010,06,24,04,24,17.80
2010,06,24,04,25,17.80
2010,06,24,04,26,17.80
2010,06,24,04,27,17.80
2010,06,24,04,28,17.80
2010,06,24,04,29,17.70
2010,06,24,04,30,17.70
2010,06,24,04,31,17.70
2010,06,24,04,32,17.70
2010,06,24,04,33,17.70
2010,06,24,04,34,17.70
2010,06,24,04,35,17.60
2010,06,24,04,36,17.60
2010,06,24,04,37,17.60
2010,06,24,04,38,17.50
2010,06,24,04,39,17.50
2010,06,24,04,40,17.40
2010,06,24,04,41,17.40
2010,06,24,04,42,17.40
2010,06,24,04,43,17.40
2010,06,24,04,44,17.40
2010,06,24,04,45,17.30
2010,06,24,04,46,17.30
2010,06,24,04,47,17.30
2010,06,24,04,48,17.30
2010,06,24,04,49,17.20
2010,06,24,04,50,17.20
2010,06,24,04,51,17.10
2010,06,24,04,52,17.10
2010,06,24,04,53,17.00
2010,06,24,04,54,17.00
2010,06,24,04,55,17.00
2010,06,24,04,56,17.00
2010,06,24,04,57,17.10
2010,06,24,04,58,17.10
2010,06,24,04,59,17.10
2010,06,24,05,00,17.10
2010,06,24,05,01,17.10
2010,06,24,05,02,17.10
2010,06,24,05,03,17.10
2010,06,24,05,04,17.10
2010,06,24,05,05,17.10
2010,06,24,05,06,17.10
2010,06,24,05,07,17.10
2010,06,24,05,08,17.10
2010,06,24,05,09,17.20
2010,06,24,05,10,17.20
2010,06,24,05,11,17.20
2010,06,24,05,12,17.20
2010,06,24,05,13,17.20
2010,06,24,05,14,17.10
2010,06,24,05,15,17.10
2010,06,24,05,16,17.10
2010,06,24,05,17,17.10
2010,06,24,05,18,17.00
2010,06,24,05,19,17.00
2010,06,24,05,20,17.00
2010,06,24,05,21,17.00
2010,06,24,05,22,16.90
2010,06,24,05,23,16.90
2010,06,24,05,24,16.90
2010,06,24,05,25,16.90
2010,06,24,05,26,16.90
2010,06,24,05,27,16.90
2010,06,24,05,28,16.90
2010,06,24,05,29,16.90
2010,06,24,05,30,16.90
2010,06,24,05,31,16.90
2010,06,24,05,32,16.90
2010,06,24,05,33,16.90
2010,06,24,05,34,16.90
2010,06,24,05,35,16.90
2010,06,24,05,36,16.90
2010,06,24,05,37,17.00
2010,06,24,05,38,16.90
2010,06,24,05,39,17.00
2010,06,24,05,40,17.00
2010,06,24,05,41,17.00
2010,06,24,05,42,17.10
2010,06,24,05,43,17.00
2010,06,24,05,44,16.90
2010,06,24,05,45,16.90
2010,06,24,05,46,16.90
2010,06,24,05,47,16.90
2010,06,24,05,48,16.90
2010,06,24,05,49,16.90
2010,06,24,05,50,16.90
2010,06,24,05,51,16.90
2010,06,24,05,52,16.90
2010,06,24,05,53,16.90
2010,06,24,05,54,16.90
2010,06,24,05,55,16.90
2010,06,24,05,56,16.90
2010,06,24,05,57,16.90
2010,06,24,05,58,16.90
2010,06,24,05,59,16.90
2010,06,24,06,00,16.90
2010,06,24,06,01,16.90
2010,06,24,06,02,16.90
2010,06,24,06,03,16.90
2010,06,24,06,04,16.90
2010,06,24,06,05,16.80
2010,06,24,06,06,16.80
2010,06,24,06,07,16.80
2010,06,24,06,08,16.80
2010,06,24,06,09,16.80
2010,06,24,06,10,16.80
2010,06,24,06,11,16.80
2010,06,24,06,12,16.80
2010,06,24,06,13,16.80
2010,06,24,06,14,16.80
2010,06,24,06,15,16.80
2010,06,24,06,16,16.80
2010,06,24,06,17,16.80
2010,06,24,06,18,16.80
2010,06,24,06,19,16.70
2010,06,24,06,20,16.70
2010,06,24,06,21,16.70
2010,06,24,06,22,16.70
2010,06,24,06,23,16.70
2010,06,24,06,24,16.70
2010,06,24,06,25,16.70
2010,06,24,06,26,16.70
2010,06,24,06,27,16.70
2010,06,24,06,28,16.70
2010,06,24,06,29,16.70
2010,06,24,06,30,16.70
2010,06,24,06,31,16.70
2010,06,24,06,32,16.70
2010,06,24,06,33,16.70
2010,06,24,06,34,16.70
2010,06,24,06,35,16.70
2010,06,24,06,36,16.80
2010,06,24,06,37,16.70
2010,06,24,06,38,16.70
2010,06,24,06,39,16.70
2010,06,24,06,40,16.70
2010,06,24,06,41,16.70
2010,06,24,06,42,16.70
2010,06,24,06,43,16.60
2010,06,24,06,44,16.60
2010,06,24,06,45,16.60
2010,06,24,06,46,16.60
2010,06,24,06,47,16.60
2010,06,24,06,48,16.50
2010,06,24,06,49,16.50
2010,06,24,06,50,16.50
2010,06,24,06,51,16.50
2010,06,24,06,52,16.40
2010,06,24,06,53,16.40
2010,06,24,06,54,16.40
2010,06,24,06,55,16.40
2010,06,24,06,56,16.40
2010,06,24,06,57,16.40
2010,06,24,06,58,16.40
2010,06,24,06,59,16.40
2010,06,24,07,00,16.40
2010,06,24,07,01,16.40
2010,06,24,07,02,16.40
2010,06,24,07,03,16.50
2010,06,24,07,04,16.50
2010,06,24,07,05,16.50
2010,06,24,07,06,16.50
2010,06,24,07,07,16.50
2010,06,24,07,08,16.60
2010,06,24,07,09,16.60
2010,06,24,07,10,16.60
2010,06,24,07,11,16.60
2010,06,24,07,12,16.60
2010,06,24,07,13,16.60
2010,06,24,07,14,16.60
2010,06,24,07,15,16.60
2010,06,24,07,16,16.60
2010,06,24,07,17,16.60
2010,06,24,07,18,16.60
2010,06,24,07,19,16.60
2010,06,24,07,20,16.60
2010,06,24,07,21,16.70
2010,06,24,07,22,16.70
2010,06,24,07,23,16.70
2010,06,24,07,24,16.70
2010,06,24,07,25,16.80
2010,06,24,07,26,16.80
2010,06,24,07,27,16.80
2010,06,24,07,28,16.80
2010,06,24,07,29,16.80
2010,06,24,07,30,16.90
2010,06,24,07,31,16.90
2010,06,24,07,32,17.00
2010,06,24,07,33,17.00
2010,06,24,07,34,17.00
2010,06,24,07,35,17.10
2010,06,24,07,36,17.10
2010,06,24,07,37,17.10
2010,06,24,07,38,17.10
2010,06,24,07,39,17.20
2010,06,24,07,40,17.20
2010,06,24,07,41,17.20
2010,06,24,07,42,17.20
2010,06,24,07,43,17.20
2010,06,24,07,44,17.30
2010,06,24,07,45,17.30
2010,06,24,07,46,17.30
2010,06,24,07,47,17.30
2010,06,24,07,48,17.30
2010,06,24,07,49,17.30
2010,06,24,07,50,17.30
2010,06,24,07,51,17.30
2010,06,24,07,52,17.30
2010,06,24,07,53,17.30
2010,06,24,07,54,17.30
2010,06,24,07,55,17.30
2010,06,24,07,56,17.30
2010,06,24,07,57,17.30
2010,06,24,07,58,17.30
2010,06,24,07,59,17.30
2010,06,24,08,00,17.20
2010,06,24,08,01,17.20
2010,06,24,08,02,17.10
2010,06,24,08,03,17.10
2010,06,24,08,04,17.10
2010,06,24,08,05,17.10
2010,06,24,08,06,17.00
2010,06,24,08,07,17.00
2010,06,24,08,08,16.90
2010,06,24,08,09,16.90
2010,06,24,08,10,16.90
2010,06,24,08,11,16.90
2010,06,24,08,12,16.90
2010,06,24,08,13,16.90
2010,06,24,08,14,16.90
2010,06,24,08,15,16.90
2010,06,24,08,16,16.90
2010,06,24,08,17,16.90
2010,06,24,08,18,16.80
2010,06,24,08,19,16.80
2010,06,24,08,20,16.80
2010,06,24,08,21,16.80
2010,06,24,08,22,16.80
2010,06,24,08,23,16.80
2010,06,24,08,24,16.80
2010,06,24,08,25,16.80
2010,06,24,08,26,16.80
2010,06,24,08,27,16.80
2010,06,24,08,28,16.80
2010,06,24,08,29,16.80
2010,06,24,08,30,16.80
2010,06,24,08,31,16.80
2010,06,24,08,32,16.80
2010,06,24,08,33,16.80
2010,06,24,08,34,16.80
2010,06,24,08,35,16.80
2010,06,24,08,36,16.80
2010,06,24,08,37,16.90
2010,06,24,08,38,16.90
2010,06,24,08,39,16.90
2010,06,24,08,40,16.90
2010,06,24,08,41,17.00
2010,06,24,08,42,17.00
2010,06,24,08,43,17.00
2010,06,24,08,44,17.10
2010,06,24,08,45,17.00
2010,06,24,08,46,17.00
2010,06,24,08,47,17.00
2010,06,24,08,48,17.00
2010,06,24,08,49,17.10
2010,06,24,08,50,17.10
2010,06,24,08,51,17.10
2010,06,24,08,52,17.10
2010,06,24,08,53,17.10
2010,06,24,08,54,17.20
2010,06,24,08,55,17.20
2010,06,24,08,56,17.20
2010,06,24,08,57,17.20
2010,06,24,08,58,17.30
2010,06,24,08,59,17.20
2010,06,24,09,00,17.20
2010,06,24,09,01,17.20
2010,06,24,09,02,17.10
2010,06,24,09,03,17.00
2010,06,24,09,04,17.00
2010,06,24,09,05,16.90
2010,06,24,09,06,16.80
2010,06,24,09,07,16.70
2010,06,24,09,08,16.70
2010,06,24,09,09,16.60
2010,06,24,09,10,16.50
2010,06,24,09,11,16.50
2010,06,24,09,12,16.40
2010,06,24,09,13,16.50
2010,06,24,09,14,16.50
2010,06,24,09,15,16.60
2010,06,24,09,16,16.70
2010,06,24,09,17,16.80
2010,06,24,09,18,16.90
2010,06,24,09,19,17.00
2010,06,24,09,20,17.00
2010,06,24,09,21,17.10
2010,06,24,09,22,17.20
2010,06,24,09,23,17.20
2010,06,24,09,24,17.30
2010,06,24,09,25,17.30
2010,06,24,09,26,17.40
2010,06,24,09,27,17.40
2010,06,24,09,28,17.30
2010,06,24,09,29,17.40
2010,06,24,09,30,17.50
2010,06,24,09,31,17.50
2010,06,24,09,32,17.60
2010,06,24,09,33,17.70
2010,06,24,09,34,17.80
2010,06,24,09,35,18.00
2010,06,24,09,36,18.10
2010,06,24,09,37,18.20
2010,06,24,09,38,18.20
2010,06,24,09,39,18.30
2010,06,24,09,40,18.30
2010,06,24,09,41,18.40
2010,06,24,09,42,18.40
2010,06,24,09,43,18.40
2010,06,24,09,44,18.40
2010,06,24,09,45,18.40
2010,06,24,09,46,18.40
2010,06,24,09,47,18.50
2010,06,24,09,48,18.70
2010,06,24,09,49,18.80
2010,06,24,09,50,18.90
2010,06,24,09,51,19.10
2010,06,24,09,52,19.20
2010,06,24,09,53,19.30
2010,06,24,09,54,19.30
2010,06,24,09,55,19.20
2010,06,24,09,56,19.10
2010,06,24,09,57,19.00
2010,06,24,09,58,19.00
2010,06,24,09,59,18.90
2010,06,24,10,00,18.90
2010,06,24,10,01,18.90
2010,06,24,10,02,19.00
2010,06,24,10,03,19.00
2010,06,24,10,04,18.90
2010,06,24,10,05,18.90
2010,06,24,10,06,18.90
2010,06,24,10,07,18.90
2010,06,24,10,08,18.90
2010,06,24,10,09,19.00
2010,06,24,10,10,19.10
2010,06,24,10,11,19.10
2010,06,24,10,12,19.10
2010,06,24,10,13,19.10
2010,06,24,10,14,19.10
2010,06,24,10,15,19.00
2010,06,24,10,16,19.00
2010,06,24,10,17,18.90
2010,06,24,10,18,18.80
2010,06,24,10,19,18.70
2010,06,24,10,20,18.60
2010,06,24,10,21,18.50
2010,06,24,10,22,18.40
2010,06,24,10,23,18.40
2010,06,24,10,24,18.40
2010,06,24,10,25,18.40
2010,06,24,10,26,18.40
2010,06,24,10,27,18.50
2010,06,24,10,28,18.50
2010,06,24,10,29,18.40
2010,06,24,10,30,18.50
2010,06,24,10,31,18.50
2010,06,24,10,32,18.50
2010,06,24,10,33,18.50
2010,06,24,10,34,18.50
2010,06,24,10,35,18.70
2010,06,24,10,36,18.70
2010,06,24,10,37,18.80
2010,06,24,10,38,18.90
2010,06,24,10,39,18.90
2010,06,24,10,40,18.90
2010,06,24,10,41,18.80
2010,06,24,10,42,18.80
2010,06,24,10,43,18.80
2010,06,24,10,44,18.80
2010,06,24,10,45,18.80
2010,06,24,10,46,18.80
2010,06,24,10,47,18.80
2010,06,24,10,48,18.70
2010,06,24,10,49,18.80
2010,06,24,10,50,18.80
2010,06,24,10,51,18.90
2010,06,24,10,52,19.00
2010,06,24,10,53,19.00
2010,06,24,10,54,19.10
2010,06,24,10,55,19.20
2010,06,24,10,56,19.20
2010,06,24,10,57,19.20
2010,06,24,10,58,19.20
2010,06,24,10,59,19.20
2010,06,24,11,00,19.20
2010,06,24,11,01,19.30
2010,06,24,11,02,19.20
2010,06,24,11,03,19.20
2010,06,24,11,04,19.20
2010,06,24,11,05,19.30
2010,06,24,11,06,19.40
2010,06,24,11,07,19.40
2010,06,24,11,08,19.40
2010,06,24,11,09,19.50
2010,06,24,11,10,19.60
2010,06,24,11,11,19.60
2010,06,24,11,12,19.60
2010,06,24,11,13,19.60
2010,06,24,11,14,19.60
2010,06,24,11,15,19.70
2010,06,24,11,16,19.80
2010,06,24,11,17,19.80
2010,06,24,11,18,19.80
2010,06,24,11,19,19.80
2010,06,24,11,20,19.80
2010,06,24,11,21,19.80
2010,06,24,11,22,19.80
2010,06,24,11,23,19.70
2010,06,24,11,24,19.80
2010,06,24,11,25,19.80
2010,06,24,11,26,19.90
2010,06,24,11,27,19.80
2010,06,24,11,28,19.80
2010,06,24,11,29,19.80
2010,06,24,11,30,19.80
2010,06,24,11,31,19.80
2010,06,24,11,32,19.70
2010,06,24,11,33,19.60
2010,06,24,11,34,19.40
2010,06,24,11,35,19.30
2010,06,24,11,36,19.20
2010,06,24,11,37,19.20
2010,06,24,11,38,19.10
2010,06,24,11,39,19.20
2010,06,24,11,40,19.20
2010,06,24,11,41,19.20
2010,06,24,11,42,19.20
2010,06,24,11,43,19.30
2010,06,24,11,44,19.30
2010,06,24,11,45,19.30
2010,06,24,11,46,19.20
2010,06,24,11,47,19.20
2010,06,24,11,48,19.20
2010,06,24,11,49,19.30
2010,06,24,11,50,19.40
2010,06,24,11,51,19.40
2010,06,24,11,52,19.50
2010,06,24,11,53,19.50
2010,06,24,11,54,19.60
2010,06,24,11,55,19.60
2010,06,24,11,56,19.70
2010,06,24,11,57,19.80
2010,06,24,11,58,19.80
2010,06,24,11,59,19.90
2010,06,24,12,00,19.90
2010,06,24,12,01,19.90
2010,06,24,12,02,20.00
2010,06,24,12,03,20.00
2010,06,24,12,04,20.00
2010,06,24,12,05,20.00
2010,06,24,12,06,19.90
2010,06,24,12,07,19.80
2010,06,24,12,08,19.80
2010,06,24,12,09,19.80
2010,06,24,12,10,19.90
2010,06,24,12,11,20.00
2010,06,24,12,12,20.00
2010,06,24,12,13,20.00
2010,06,24,12,14,20.00
2010,06,24,12,15,20.10
2010,06,24,12,16,20.00
2010,06,24,12,17,19.90
2010,06,24,12,18,19.90
2010,06,24,12,19,19.90
2010,06,24,12,20,19.90
2010,06,24,12,21,19.90
2010,06,24,12,22,19.90
2010,06,24,12,23,19.90
2010,06,24,12,24,19.90
2010,06,24,12,25,19.90
2010,06,24,12,26,20.00
2010,06,24,12,27,20.10
2010,06,24,12,28,20.20
2010,06,24,12,29,20.20
2010,06,24,12,30,20.20
2010,06,24,12,31,20.30
2010,06,24,12,32,20.30
2010,06,24,12,33,20.40
2010,06,24,12,34,20.50
2010,06,24,12,35,20.60
2010,06,24,12,36,20.80
2010,06,24,12,37,20.90
2010,06,24,12,38,21.00
2010,06,24,12,39,21.20
2010,06,24,12,40,21.40
2010,06,24,12,41,21.50
2010,06,24,12,42,21.50
2010,06,24,12,43,21.50
2010,06,24,12,44,21.40
2010,06,24,12,45,21.30
2010,06,24,12,46,21.30
2010,06,24,12,47,21.20
2010,06,24,12,48,21.10
2010,06,24,12,49,21.10
2010,06,24,12,50,21.10
2010,06,24,12,51,21.00
2010,06,24,12,52,21.00
2010,06,24,12,53,21.00
2010,06,24,12,54,21.00
2010,06,24,12,55,20.90
2010,06,24,12,56,20.80
2010,06,24,12,57,20.80
2010,06,24,12,58,20.90
2010,06,24,12,59,21.00
2010,06,24,13,00,21.20
2010,06,24,13,01,21.40
2010,06,24,13,02,21.60
2010,06,24,13,03,21.80
2010,06,24,13,04,22.00
2010,06,24,13,05,22.00
2010,06,24,13,06,21.80
2010,06,24,13,07,21.70
2010,06,24,13,08,21.50
2010,06,24,13,09,21.40
2010,06,24,13,10,21.40
2010,06,24,13,11,21.40
2010,06,24,13,12,21.40
2010,06,24,13,13,21.20
2010,06,24,13,14,21.20
2010,06,24,13,15,21.30
2010,06,24,13,16,21.30
2010,06,24,13,17,21.40
2010,06,24,13,18,21.50
2010,06,24,13,19,21.50
2010,06,24,13,20,21.60
2010,06,24,13,21,21.60
2010,06,24,13,22,21.50
2010,06,24,13,23,21.40
2010,06,24,13,24,21.30
2010,06,24,13,25,21.10
2010,06,24,13,26,21.00
2010,06,24,13,27,20.80
2010,06,24,13,28,20.70
2010,06,24,13,29,20.80
2010,06,24,13,30,20.90
2010,06,24,13,31,21.00
2010,06,24,13,32,21.10
2010,06,24,13,33,21.20
2010,06,24,13,34,21.30
2010,06,24,13,35,21.30
2010,06,24,13,36,21.30
2010,06,24,13,37,21.30
2010,06,24,13,38,21.30
2010,06,24,13,39,21.20
2010,06,24,13,40,21.30
2010,06,24,13,41,21.30
2010,06,24,13,42,21.30
2010,06,24,13,43,21.30
2010,06,24,13,44,21.40
2010,06,24,13,45,21.40
2010,06,24,13,46,21.50
2010,06,24,13,47,21.60
2010,06,24,13,48,21.60
2010,06,24,13,49,21.70
2010,06,24,13,50,21.90
2010,06,24,13,51,21.90
2010,06,24,13,52,22.10
2010,06,24,13,53,22.20
2010,06,24,13,54,22.40
2010,06,24,13,55,22.60
2010,06,24,13,56,22.80
2010,06,24,13,57,23.00
2010,06,24,13,58,23.10
2010,06,24,13,59,23.20
2010,06,24,14,00,23.40
2010,06,24,14,01,23.40
2010,06,24,14,02,23.20
2010,06,24,14,03,23.00
2010,06,24,14,04,22.90
2010,06,24,14,05,22.70
2010,06,24,14,06,22.70
2010,06,24,14,07,22.70
2010,06,24,14,08,22.70
2010,06,24,14,09,22.60
2010,06,24,14,10,22.40
2010,06,24,14,11,22.30
2010,06,24,14,12,22.20
2010,06,24,14,13,22.10
2010,06,24,14,14,22.00
2010,06,24,14,15,22.00
2010,06,24,14,16,22.00
2010,06,24,14,17,22.00
2010,06,24,14,18,22.00
2010,06,24,14,19,21.90
2010,06,24,14,20,21.80
2010,06,24,14,21,21.60
2010,06,24,14,22,21.50
2010,06,24,14,23,21.30
2010,06,24,14,24,21.20
2010,06,24,14,25,21.20
2010,06,24,14,26,21.30
2010,06,24,14,27,21.40
2010,06,24,14,28,21.60
2010,06,24,14,29,21.70
2010,06,24,14,30,21.80
2010,06,24,14,31,21.70
2010,06,24,14,32,21.60
2010,06,24,14,33,21.50
2010,06,24,14,34,21.40
2010,06,24,14,35,21.40
2010,06,24,14,36,21.30
2010,06,24,14,37,21.30
2010,06,24,14,38,21.30
2010,06,24,14,39,21.20
2010,06,24,14,40,21.10
2010,06,24,14,41,21.00
2010,06,24,14,42,21.00
2010,06,24,14,43,20.90
2010,06,24,14,44,20.90
2010,06,24,14,45,20.80
2010,06,24,14,46,20.70
2010,06,24,14,47,20.50
2010,06,24,14,48,20.30
2010,06,24,14,49,20.20
2010,06,24,14,50,20.10
2010,06,24,14,51,20.00
2010,06,24,14,52,20.00
2010,06,24,14,53,19.90
2010,06,24,14,54,19.90
2010,06,24,14,55,19.90
2010,06,24,14,56,19.90
2010,06,24,14,57,19.80
2010,06,24,14,58,19.60
2010,06,24,14,59,19.50
2010,06,24,15,00,19.50
2010,06,24,15,01,19.50
2010,06,24,15,02,19.50
2010,06,24,15,03,19.50
2010,06,24,15,04,19.50
2010,06,24,15,05,19.50
2010,06,24,15,06,19.60
2010,06,24,15,07,19.60
2010,06,24,15,08,19.70
2010,06,24,15,09,19.70
2010,06,24,15,10,19.70
2010,06,24,15,11,19.70
2010,06,24,15,12,19.80
2010,06,24,15,13,20.00
2010,06,24,15,14,20.10
2010,06,24,15,15,20.20
2010,06,24,15,16,20.30
2010,06,24,15,17,20.50
2010,06,24,15,18,20.70
2010,06,24,15,19,20.80
2010,06,24,15,20,21.00
2010,06,24,15,21,21.10
2010,06,24,15,22,21.10
2010,06,24,15,23,21.20
2010,06,24,15,24,21.20
2010,06,24,15,25,21.30
2010,06,24,15,26,21.40
2010,06,24,15,27,21.50
2010,06,24,15,28,21.70
2010,06,24,15,29,21.80
2010,06,24,15,30,22.00
2010,06,24,15,31,22.10
2010,06,24,15,32,22.30
2010,06,24,15,33,22.40
2010,06,24,15,34,22.50
2010,06,24,15,35,22.60
2010,06,24,15,36,22.60
2010,06,24,15,37,22.60
2010,06,24,15,38,22.60
2010,06,24,15,39,22.70
2010,06,24,15,40,22.80
2010,06,24,15,41,22.80
2010,06,24,15,42,22.90
2010,06,24,15,43,23.00
2010,06,24,15,44,23.10
2010,06,24,15,45,23.10
2010,06,24,15,46,23.10
2010,06,24,15,47,23.20
2010,06,24,15,48,23.20
2010,06,24,15,49,23.20
2010,06,24,15,50,23.30
2010,06,24,15,51,23.30
2010,06,24,15,52,23.30
2010,06,24,15,53,23.30
2010,06,24,15,54,23.30
2010,06,24,15,55,23.30
2010,06,24,15,56,23.40
2010,06,24,15,57,23.40
2010,06,24,15,58,23.40
2010,06,24,15,59,23.30
2010,06,24,16,00,23.30
2010,06,24,16,01,23.40
2010,06,24,16,02,23.40
2010,06,24,16,03,23.40
2010,06,24,16,04,23.40
2010,06,24,16,05,23.40
2010,06,24,16,06,23.40
2010,06,24,16,07,23.40
2010,06,24,16,08,23.30
2010,06,24,16,09,23.20
2010,06,24,16,10,23.10
2010,06,24,16,11,23.00
2010,06,24,16,12,22.80
2010,06,24,16,13,22.70
2010,06,24,16,14,22.60
2010,06,24,16,15,22.50
2010,06,24,16,16,22.50
2010,06,24,16,17,22.50
2010,06,24,16,18,22.60
2010,06,24,16,19,22.60
2010,06,24,16,20,22.60
2010,06,24,16,21,22.70
2010,06,24,16,22,22.80
2010,06,24,16,23,22.80
2010,06,24,16,24,22.90
2010,06,24,16,25,22.90
2010,06,24,16,26,22.90
2010,06,24,16,27,23.00
2010,06,24,16,28,23.00
2010,06,24,16,29,22.90
2010,06,24,16,30,23.00
2010,06,24,16,31,23.00
2010,06,24,16,32,23.00
2010,06,24,16,33,23.10
2010,06,24,16,34,23.10
2010,06,24,16,35,23.10
2010,06,24,16,36,23.10
2010,06,24,16,37,23.20
2010,06,24,16,38,23.30
2010,06,24,16,39,23.40
2010,06,24,16,40,23.40
2010,06,24,16,41,23.30
2010,06,24,16,42,23.20
2010,06,24,16,43,23.20
2010,06,24,16,44,23.10
2010,06,24,16,45,23.00
2010,06,24,16,46,22.90
2010,06,24,16,47,23.00
2010,06,24,16,48,23.10
2010,06,24,16,49,23.20
2010,06,24,16,50,23.30
2010,06,24,16,51,23.30
2010,06,24,16,52,23.30
2010,06,24,16,53,23.20
2010,06,24,16,54,23.10
2010,06,24,16,55,23.10
2010,06,24,16,56,23.00
2010,06,24,16,57,22.90
2010,06,24,16,58,22.90
2010,06,24,16,59,22.80
2010,06,24,17,00,22.90
2010,06,24,17,01,22.90
2010,06,24,17,02,22.80
2010,06,24,17,03,22.80
2010,06,24,17,04,22.80
2010,06,24,17,05,22.90
2010,06,24,17,06,22.90
2010,06,24,17,07,23.00
2010,06,24,17,08,23.00
2010,06,24,17,09,23.00
2010,06,24,17,10,23.00
2010,06,24,17,11,23.10
2010,06,24,17,12,23.20
2010,06,24,17,13,23.30
2010,06,24,17,14,23.30
2010,06,24,17,15,23.40
2010,06,24,17,16,23.40
2010,06,24,17,17,23.40
2010,06,24,17,18,23.40
2010,06,24,17,19,23.40